Zurück zum Katalog

COSMOS 2441

AktivMilitärSSO
NORAD 33272·PAYLOAD·🇷🇺 Russia

Gestartet Jul 26, 2008 von Plesetsk Cosmodrome

Loading…

Nächste Überflüge (nächste 24 Stunden)

TLE

AktuellSource: Space-Track

Epoche: Sep 14, 2026, 06:19 UTC

1 33272U 08037A   26257.26341063  .00000143  00000-0  45392-4 0  9997
2 33272  98.3360 203.5691 0017306  67.8941 292.4090 14.53298024960982

Verfolge COSMOS 2441 in Echtzeit mit AllMySat

Download on the App Store